星链-5612 (STARLINK-5612 )

导读

STARLINK-5612是美国太空探索技术公司 SpaceX 星链星座的成员卫星,由美国于2023年3月3日发射。该卫星属于星链第二代组网卫星,旨在为全球提供低延迟、高速率的卫星互联网服务,尤其覆盖偏远地区与网络基础设施匮乏区域,目前已正常在轨运行,支撑星链星座的服务能力拓展。

Basic Information
目录编号:
55754
目录名称:
STARLINK-5612
国际标识:
2023-028P
轨道中心:
EARTH
卫星名称:
星链-5612
卫星全名:
星链-5612 (STARLINK-5612 )
卫星状态:
在轨 (已飞行1200 天)
发射日期:
2023-03-03 UTC
国别 :
美国 (US)
星等 :
--
Orbit Information
数据来源 国际轨道数据 AOE轨道数据
星历时间 2026-06-15T04:01:43+0800
8小时前
查看轨道信息
2026-06-15T02:00:00+0800
10小时前
查看轨道信息
半长轴 6950.19km 6950.208km
偏心率 0.0002768 0.0002848
轨道倾角 69.999° 69.997°
近地点辐角 271.003° 274.904°
升交点赤经 359.435° 359.648°
平近点角 89.081° 349.347°
近地点 570.129km 570.091km
远地点 573.977km 574.051km
周期 96.107分钟 96.107分钟
每日圈数 14.98331 14.983253
Detailed Information
固有亮度:
5
最大亮度:
2.5
卫星平台:
Starlink v1.5
覆盖范围:
全球
运营商:
太空探索技术公司
运营商所在国:
美国
制造商(研发单位):
太空探索技术公司
制造商所在国:
美国
使用方式:
暂无
Satellite Introduction
星链(Starlink)计划是由太空探索技术公司(SpaceX)提出的一个巨型低轨卫星互联网星座项目,计划在2019年至2024年间在太空搭建由约1.2万颗卫星组成的“星链”网络,其中1584颗将部署在地球上空550千米处的近地轨道,并从2020年开始工作。该卫星仍在工作。
2D Orbit Map
3D Orbit Map
Orbit Altitude Analysis Chart
Orbit Inclination Analysis Chart
Orbit Comprehensive Analysis Chart
View Comprehensive Chart